Weather History for KBWI - March, 2013

Change the Weather History Date:

Sunday, March 10, 2013

  Actual Average Record
Temperature  
Mean Temperature 44 °F 42 °F  
Max Temperature 59 °F 52 °F 77 °F (1964)
Min Temperature 28 °F 32 °F 11 °F (1996)
Degree Days  
Heating Degree Days 21 23  
Month to date heating degree days 255 247  
Since 1 July heating degree days 3547 3842  
Cooling Degree Days 0 0  
Month to date cooling degree days 0 0  
Year to date cooling degree days 0 0  
Moisture  
Dew Point 23 °F    
Average Humidity 49    
Maximum Humidity 85    
Minimum Humidity 12    
Precipitation  
Precipitation 0.00 in 0.12 in 2.61 in (2011)
Month to date precipitation 0.75 1.14  
Year to date precipitation 6.34 7.09  
Snow  
Snow 0.00 in 0.10 in 8.00 in (1892)
Month to date snowfall T 1.1  
Since 1 July snowfall 4.8 19.3  
Snow Depth 0.00 in    
Sea Level Pressure  
Sea Level Pressure 30.29 in    
Wind  
Wind Speed 5 mph (SE)    
Max Wind Speed 18 mph    
Max Gust Speed 21 mph    
Visibility 10 miles    
Events      
T = Trace of Precipitation, MM = Missing Value Source: NWS Daily Summary

Daily Weather History Graph

Daily Weather History Graph

Search for Another Location

Airport or City:

Trip Planner

Search our weather history database for the weather conditions in past years. The results will help you decide how hot, cold, wet, or windy it might be!

Date:

Astronomy

Mar. 10, 2013 Rise Set
Actual Time 7:25 AM EDT 7:08 PM EDT
Civil Twilight 6:58 AM EDT 7:35 PM EDT
Nautical Twilight 6:27 AM EDT 8:06 PM EDT
Astronomical Twilight 5:56 AM EDT 8:37 PM EDT
Moon 6:23 AM EDT (3/10) 6:14 PM EDT (3/10)
Length of Visible Light 12h 36m
Length of Day
11h 43m
Waning Crescent, 2% of the Moon is Illuminated
Mar 10
Waning Crescent
Mar 11
New
Mar 19
First Quarter
Mar 27
Full
Apr 3
Last Quarter

Hourly Weather History & Observations

Time (EDT) Temp. Windchill Dew Point Humidity Pressure Visibility Wind Dir Wind Speed Gust Speed Precip Events Conditions
12:54 AM 34.0 °F - 24.1 °F 67% 30.30 in 10.0 mi Calm Calm - N/A   Clear
1:54 AM 33.1 °F - 25.0 °F 72% 30.30 in 10.0 mi Calm Calm - N/A   Clear
3:54 AM 30.9 °F 27.5 °F 24.1 °F 76% 30.29 in 10.0 mi West 3.5 mph - N/A   Clear
4:54 AM 32.0 °F - 24.1 °F 73% 30.28 in 10.0 mi Calm Calm - N/A   Clear
5:54 AM 30.9 °F - 25.0 °F 79% 30.29 in 10.0 mi Calm Calm - N/A   Partly Cloudy
6:54 AM 28.9 °F - 24.1 °F 82% 30.32 in 10.0 mi Calm Calm - N/A   Partly Cloudy
7:54 AM 30.2 °F - 24.8 °F 80% 30.31 in 10.0 mi Calm Calm - N/A   Scattered Clouds
8:54 AM 37.9 °F 35.5 °F 30.9 °F 76% 30.32 in 8.0 mi East 3.5 mph - N/A   Scattered Clouds
9:54 AM 46.0 °F - 32.0 °F 58% 30.33 in 9.0 mi Calm Calm - N/A   Scattered Clouds
10:54 AM 52.0 °F - 26.1 °F 37% 30.34 in 10.0 mi SE 3.5 mph - N/A   Scattered Clouds
11:54 AM 55.9 °F - 21.0 °F 26% 30.33 in 10.0 mi Variable 6.9 mph - N/A   Scattered Clouds
12:54 PM 57.0 °F - 19.0 °F 23% 30.32 in 10.0 mi ESE 9.2 mph 16.1 mph N/A   Scattered Clouds
1:54 PM 57.9 °F - 17.1 °F 20% 30.30 in 10.0 mi ESE 11.5 mph 16.1 mph N/A   Scattered Clouds
2:54 PM 59.0 °F - 15.1 °F 18% 30.27 in 10.0 mi ESE 12.7 mph - N/A   Scattered Clouds
3:54 PM 59.0 °F - 12.0 °F 16% 30.26 in 10.0 mi SSE 8.1 mph - N/A   Mostly Cloudy
4:54 PM 57.9 °F - 8.1 °F 14% 30.25 in 10.0 mi SE 11.5 mph 18.4 mph N/A   Scattered Clouds
5:54 PM 57.0 °F - 5.0 °F 12% 30.24 in 10.0 mi SSE 10.4 mph 19.6 mph N/A   Scattered Clouds
6:54 PM 55.0 °F - 6.1 °F 14% 30.25 in 10.0 mi SE 5.8 mph - N/A   Scattered Clouds
7:54 PM 52.0 °F - 21.0 °F 30% 30.26 in 10.0 mi SE 4.6 mph - N/A   Scattered Clouds
8:54 PM 48.9 °F - 23.0 °F 36% 30.27 in 10.0 mi SSE 4.6 mph - N/A   Scattered Clouds
9:54 PM 46.9 °F - 28.0 °F 48% 30.27 in 10.0 mi SSE 4.6 mph - N/A   Scattered Clouds
10:54 PM 46.0 °F 43.9 °F 36.0 °F 68% 30.27 in 10.0 mi SSE 4.6 mph - N/A   Scattered Clouds
11:54 PM 44.1 °F 42.5 °F 39.0 °F 82% 30.26 in 10.0 mi SE 3.5 mph - N/A   Mostly Cloudy
12:48 AM 42.8 °F 41.1 °F 39.2 °F 87% 30.26 in 10.0 mi ESE 3.5 mph - N/A   Mostly Cloudy
12:54 AM 44.1 °F 41.5 °F 39.9 °F 85% 30.26 in 10.0 mi ESE 4.6 mph - N/A   Mostly Cloudy